Location: Del Oro Observatory
(38.3044°N, 104.8119°W)
Time: 23:24:55
(UTC-07:00)

Cosmos 1602 Rocket - Visible Passes

Search period start: 25 November 2014 00:00
Search period end: 05 December 2014 00:00
Orbit: 605 x 635 km, 82.5° (Epoch: 25 November)

Date Brightness Start Highest point End Pass type
(mag) Time Alt. Az. Time Alt. Az. Time Alt. Az.
25 Nov 5.7 05:13:57 10° NNE 05:17:40 26° ENE 05:21:19 10° SE visible
25 Nov 4.9 17:44:27 10° SE 17:47:35 19° E 17:47:43 19° E visible
25 Nov 5.2 19:21:08 10° SW 19:24:58 33° W 19:24:58 33° W visible
26 Nov 4.4 05:31:12 10° N 05:35:29 50° E 05:39:42 10° SSE visible
26 Nov 4.1 18:01:01 10° SSE 18:05:06 35° E 18:06:31 28° NE visible
26 Nov 6.1 19:39:59 10° WSW 19:43:05 18° WNW 19:43:46 18° WNW visible
27 Nov 3.5 05:48:48 10° N 05:53:12 80° W 05:57:31 10° S visible
27 Nov 3.5 18:18:15 10° S 18:22:42 71° E 18:25:16 25° NNE visible
28 Nov 6.4 04:30:07 10° NE 04:32:45 16° ENE 04:35:21 10° ESE visible
28 Nov 4.0 06:06:44 10° NNW 06:10:49 39° W 06:14:51 10° SSW visible
28 Nov 4.1 18:35:59 10° SSW 18:40:24 59° W 18:43:55 16° N visible
29 Nov 5.5 04:46:51 10° NNE 04:50:39 28° ENE 04:54:25 10° SE visible
29 Nov 4.8 06:25:05 10° NW 06:28:20 21° W 06:31:32 10° SW visible
29 Nov 4.9 17:17:14 10° SE 17:20:32 21° E 17:23:51 10° NE visible
29 Nov 5.4 18:54:15 10° SW 18:58:12 30° WNW 19:02:09 10° NNW visible
30 Nov 4.2 05:04:09 10° N 05:08:28 56° E 05:12:42 10° SSE visible
30 Nov 4.1 17:33:55 10° SSE 17:38:04 39° E 17:42:13 10° NNE visible
30 Nov 6.4 19:13:14 10° WSW 19:16:06 17° WNW 19:18:58 10° NNW visible
01 Dec 3.4 05:22:08 12° NNW 05:26:09 73° W 05:30:27 10° S visible
01 Dec 3.5 17:51:13 10° S 17:55:40 78° E 18:00:09 10° N visible
02 Dec 6.2 04:03:40 13° NE 04:05:44 17° ENE 04:08:33 10° ESE visible
02 Dec 4.1 05:40:55 17° NNW 05:43:45 36° W 05:47:42 10° SSW visible
02 Dec 4.4 18:09:01 10° SSW 18:13:23 53° W 18:17:45 10° N visible
03 Dec 5.2 04:22:30 27° NE 04:23:38 31° ENE 04:27:28 10° SE visible
03 Dec 4.9 05:59:45 16° WNW 06:01:15 19° W 06:04:16 10° SW visible
03 Dec 5.6 18:27:21 10° SW 18:31:11 28° WNW 18:35:02 10° NNW visible
04 Dec 3.9 04:41:20 61° ENE 04:41:25 61° E 04:45:41 10° SSE visible
04 Dec 4.0 17:06:48 10° SSE 17:11:01 43° E 17:15:13 10° NNE visible
04 Dec 6.5 18:46:29 10° WSW 18:49:06 15° WNW 18:51:43 10° NW visible
